Location: Diguira
(13.1838°N, 4.9109°W)
Time: 15:34:16
(UTC+00:00)

Okean 2 Rocket - Pass Details

Date: 18 September 2020
Orbit: 616 x 642 km, 82.5° (Epoch: 19 October)

Event Time Altitude Azimuth Distance (km) Brightness Sun altitude
Rises 19:30:52 0° 183° (S) 2,937 6.5 -18.5°
Reaches altitude 10° 19:33:06 10° 183° (S) 2,029 5.7 -19.0°
Maximum altitude 19:37:37 87° 92° (E) 645 3.0 -20.1°
Drops below altitude 10° 19:42:07 10° 5° (N) 2,024 5.7 -21.2°
Sets 19:44:21 0° 5° (N) 2,930 6.6 -21.7°
